Latest Coastal Weather Observations for Lombadina

IDW60701

Issued at 8:32 pm WST Wednesday 5 August 2015 (issued every 10 minutes, with the page automatically refreshed every 10 minutes)

About coastal observations | Map of coastal stations | Coastal observations for WA | Marine services | Other Formats
Station Details ID: 503016 Name: LOMBADINA AIRSTRIP Lat: -16.52 Lon: 122.92 Height: 42.0 m
Data from the previous 72 hours. | See also: Recent months for locations in Western Australia
Date/Time
WST
Temp

°C
Wind Pressure Rain
since 9am
mm
Weather Cloud Vis
km
Sea
Height
m
Swell
Dir
 
Speed
knots
Gust
knots
hPa Trend Height
m
Period
s
Dir
05/08:30pm 18.6 N 2 3 1015.6 - 0.0 - - 10 - - - -
05/08:00pm 18.9 WNW 1 2 1015.7 - 0.0 - - 10 - - - -
05/07:30pm 19.0 CALM 0 1 1015.4 - 0.0 - - 10 - - - -
05/07:00pm 20.1 CALM 0 0 1015.2 - 0.0 - - 10 - - - -
05/06:30pm 20.8 E 1 2 1015.1 - 0.0 - - 10 - - - -
05/06:00pm 22.2 E 1 2 1014.9 - 0.0 - - 10 - - - -
05/05:30pm 24.4 ESE 3 5 1014.8 - 0.0 - - 10 - - - -
05/05:00pm 26.0 ESE 4 6 1014.6 - 0.0 - - 10 - - - -
05/04:30pm 27.5 E 2 5 1014.5 - 0.0 - - 10 - - - -
05/04:00pm 27.5 E 3 5 1014.4 - 0.0 - - 10 - - - -
05/03:30pm 27.6 E 5 8 1014.2 - 0.0 - - 10 - - - -
05/03:00pm 27.4 E 5 9 1014.3 - 0.0 - - 10 - - - -
05/02:30pm 28.0 ESE 5 8 1014.6 - 0.0 - - 10 - - - -
05/02:00pm 27.6 E 6 10 1014.9 - 0.0 - - 10 - - - -
05/01:30pm 27.3 E 6 10 1015.2 - 0.0 - - 10 - - - -
05/01:00pm 26.9 ESE 6 10 1015.6 - 0.0 - - 10 - - - -
05/12:30pm 26.8 ESE 7 11 1015.9 - 0.0 - Partly cloudy 10 - - - -
05/12:00pm 26.7 E 7 13 1016.4 - 0.0 - - 10 - - - -
05/11:30am 26.3 ESE 7 14 1016.7 - 0.0 - - 10 - - - -
05/11:00am 25.2 ESE 8 15 1017.0 - 0.0 - - 10 - - - -
05/10:30am 25.3 ESE 7 13 1017.3 - 0.0 - - 10 - - - -
05/10:00am 24.8 ESE 8 14 1017.7 - 0.0 - - 10 - - - -
05/09:30am 24.6 ESE 9 16 1017.8 - 0.0 - Partly cloudy 10 - - - -
05/09:00am 24.0 SE 8 14 1017.6 - 0.0 - - 10 - - - -
05/08:30am 23.4 SE 8 18 1017.4 - 0.0 - - 10 - - - -
05/08:00am 23.0 SE 9 17 1017.1 - 0.0 - - 10 - - - -
05/07:30am 22.4 SE 7 14 1016.7 - 0.0 - - 10 - - - -
05/07:00am 21.3 ESE 8 14 1016.5 - 0.0 - - 10 - - - -
05/06:30am 20.9 ESE 7 13 1016.1 - 0.0 - - 10 - - - -
05/06:00am 21.7 ESE 8 16 1015.9 - 0.0 - - 10 - - - -
05/05:30am 21.4 SE 7 14 1015.6 - 0.0 - - 10 - - - -
05/05:00am 21.3 ESE 7 12 1015.4 - 0.0 - - 10 - - - -
05/04:30am 21.0 ESE 6 10 1015.0 - 0.0 - - 10 - - - -
05/04:00am 21.1 SE 6 10 1014.9 - 0.0 - - 10 - - - -
05/03:30am 21.3 ESE 5 11 1014.9 - 0.0 - - 10 - - - -
05/03:00am 20.8 SE 6 11 1014.9 - 0.0 - - 10 - - - -
05/02:30am 21.1 SE 6 11 1015.1 - 0.0 - - 10 - - - -
05/02:00am 21.5 SE 7 11 1015.4 - 0.0 - - 10 - - - -
05/01:30am 22.0 SE 6 11 1015.4 - 0.0 - - 10 - - - -
05/01:00am 22.6 ESE 5 10 1015.4 - 0.0 - - 10 - - - -
05/12:30am 23.2 SE 6 12 1015.5 - 0.0 - - 10 - - - -
05/12:00am 23.0 SE 4 8 1015.6 - 0.0 - - 10 - - - -
 
Date/Time
WST
Temp

°C
Wind Pressure Rain
since 9am
mm
Weather Cloud Vis
km
Sea
Height
m
Swell
Dir
 
Speed
knots
Gust
knots
hPa Trend Height
m
Period
s
Dir
04/11:30pm 23.2 ESE 3 7 1015.6 - 0.0 - - 10 - - - -
04/11:00pm 23.2 SE 4 7 1015.6 - 0.0 - - 10 - - - -
04/10:30pm 23.2 SSE 3 7 1015.7 - 0.0 - - 10 - - - -
04/10:00pm 20.8 SSW 3 6 1015.9 - 0.0 - - 10 - - - -
04/09:30pm 22.0 SSW 3 6 1015.8 - 0.0 - - 10 - - - -
04/09:00pm 20.6 S 2 5 1015.7 - 0.0 - - 10 - - - -
04/08:30pm 20.5 SSE 2 3 1015.6 - 0.0 - - 10 - - - -
04/08:00pm 21.2 CALM 0 1 1015.4 - 0.0 - - 10 - - - -
04/07:30pm 21.8 CALM 0 2 1015.2 - 0.0 - - 10 - - - -
04/07:00pm 22.4 NNW 1 1 1014.8 - 0.0 - - 10 - - - -
04/06:30pm 22.9 CALM 0 0 1014.6 - 0.0 - - 10 - - - -
04/06:00pm 24.1 N 1 1 1014.2 - 0.0 - - 10 - - - -
04/05:30pm 26.9 ENE 1 2 1014.2 - 0.0 - - 10 - - - -
04/05:00pm 28.8 ESE 3 5 1014.0 - 0.0 - - 10 - - - -
04/04:30pm 29.3 ESE 4 7 1014.0 - 0.0 - - 10 - - - -
04/04:00pm 29.7 SE 5 8 1013.9 - 0.0 - - 10 - - - -
04/03:30pm 29.8 SE 6 10 1013.8 - 0.0 - Partly cloudy 10 - - - -
04/03:00pm 30.2 SE 6 11 1013.9 - 0.0 - - 10 - - - -
04/02:30pm 29.6 ESE 7 12 1014.1 - 0.0 - - 10 - - - -
04/02:00pm 29.7 ESE 6 11 1014.3 - 0.0 - - 10 - - - -
04/01:30pm 29.7 ESE 7 12 1014.6 - 0.0 - - 10 - - - -
04/01:00pm 29.2 ESE 7 11 1015.0 - 0.0 - - 10 - - - -
04/12:30pm 28.5 ESE 7 12 1015.5 - 0.0 - - 10 - - - -
04/12:00pm 27.7 ESE 8 14 1016.0 - 0.0 - - 10 - - - -
04/11:30am 26.3 ESE 9 18 1016.3 - 0.0 - - 10 - - - -
04/11:00am 26.3 ESE 11 20 1016.9 - 0.0 - - 10 - - - -
04/10:30am 25.7 ESE 12 20 1017.1 - 0.0 - - 10 - - - -
04/10:00am 24.8 ESE 12 20 1017.5 - 0.0 - - 10 - - - -
04/09:30am 24.4 ESE 10 19 1017.5 - 0.0 - - 10 - - - -
04/09:00am 24.0 ESE 12 21 1017.5 - 0.0 - - 10 - - - -
04/08:30am 23.9 ESE 13 23 1017.4 - 0.0 - - 10 - - - -
04/08:00am 23.8 ESE 12 20 1017.0 - 0.0 - - 10 - - - -
04/07:30am 23.4 ESE 11 22 1016.8 - 0.0 - - 10 - - - -
04/07:00am 22.0 ESE 9 16 1016.4 - 0.0 - - 10 - - - -
04/06:30am 20.7 SE 8 13 1016.1 - 0.0 - - 10 - - - -
04/06:00am 20.9 SE 8 15 1016.0 - 0.0 - - 10 - - - -
04/05:30am 21.0 SE 8 13 1015.9 - 0.0 - - 10 - - - -
04/05:00am 21.3 SE 7 12 1015.7 - 0.0 - - 10 - - - -
04/04:30am 21.7 SE 7 15 1015.4 - 0.0 - - 10 - - - -
04/04:00am 21.7 SE 7 11 1015.3 - 0.0 - - 10 - - - -
04/03:30am 22.0 SE 6 11 1015.2 - 0.0 - - 10 - - - -
04/03:00am 20.9 SE 5 10 1015.1 - 0.0 - - 10 - - - -
04/02:30am 21.0 SE 5 8 1014.9 - 0.0 - - 10 - - - -
04/02:00am 21.7 SE 4 8 1014.9 - 0.0 - - 10 - - - -
04/01:30am 19.4 SSE 3 5 1015.1 - 0.0 - - 10 - - - -
04/01:00am 18.7 SSE 2 3 1015.4 - 0.0 - - 10 - - - -
04/12:30am 18.6 S 2 4 1015.7 - 0.0 - - 10 - - - -
04/12:00am 18.8 SSW 2 3 1016.1 - 0.0 - - 10 - - - -
 
Date/Time
WST
Temp

°C
Wind Pressure Rain
since 9am
mm
Weather Cloud Vis
km
Sea
Height
m
Swell
Dir
 
Speed
knots
Gust
knots
hPa Trend Height
m
Period
s
Dir
03/11:30pm 19.8 SSW 3 4 1016.4 - 0.0 - - 10 - - - -
03/11:00pm 21.8 SSW 4 7 1016.3 - 0.0 - - 10 - - - -
03/10:30pm 20.6 SSW 4 6 1016.3 - 0.0 - - 10 - - - -
03/10:00pm 19.8 W 1 2 1016.1 - 0.0 - - 10 - - - -
03/09:30pm 19.6 WSW 1 1 1015.8 - 0.0 - - 10 - - - -
03/09:00pm 19.9 WNW 1 2 1015.7 - 0.0 - - 10 - - - -
03/08:30pm 20.6 WNW 1 2 1015.7 - 0.0 - - 10 - - - -
03/08:00pm 21.2 NNW 2 3 1015.8 - 0.0 - - 10 - - - -
03/07:30pm 21.3 N 1 2 1015.8 - 0.0 - - 10 - - - -
03/07:00pm 21.7 NNE 1 1 1015.5 - 0.0 - - 10 - - - -
03/06:30pm 22.6 N 1 1 1015.1 - 0.0 - - 10 - - - -
03/06:00pm 23.4 NNE 2 2 1015.1 - 0.0 - - 10 - - - -
03/05:30pm 25.8 NE 1 1 1014.9 - 0.0 - - 10 - - - -
03/05:00pm 28.6 ESE 1 3 1014.8 - 0.0 - - 10 - - - -
03/04:30pm 29.6 E 4 6 1014.5 - 0.0 - - 10 - - - -
03/04:00pm 30.1 E 5 9 1014.4 - 0.0 - - 10 - - - -
03/03:30pm 29.9 ESE 6 11 1014.3 - 0.0 - - 10 - - - -
03/03:00pm 30.0 ESE 6 11 1014.2 - 0.0 - - 10 - - - -
03/02:30pm 29.9 ESE 6 14 1014.2 - 0.0 - Partly cloudy 10 - - - -
03/02:00pm 29.7 ESE 8 14 1014.5 - 0.0 - - 10 - - - -
03/01:30pm 29.3 ESE 7 13 1014.8 - 0.0 - - 10 - - - -
03/01:00pm 28.3 SE 9 17 1014.9 - 0.0 - - 10 - - - -
03/12:30pm 28.1 SE 11 18 1015.4 - 0.0 - - 10 - - - -
03/12:00pm 28.3 SE 10 17 1015.7 - 0.0 - - 10 - - - -
03/11:30am 27.7 SE 9 21 1016.2 - 0.0 - - 10 - - - -
03/11:00am 27.3 SE 9 18 1016.6 - 0.0 - - 10 - - - -
03/10:30am 26.6 SE 9 22 1017.0 - 0.0 - - 10 - - - -
03/10:00am 25.2 SE 12 20 1017.0 - 0.0 - - 10 - - - -
03/09:30am 25.3 SE 10 20 1017.1 - 0.0 - - 10 - - - -
03/09:00am 25.1 SE 8 16 1016.8 - 0.0 - - 10 - - - -
03/08:30am 23.6 SE 8 14 1016.6 - 0.0 - - 10 - - - -
03/08:00am 22.2 SE 7 14 1016.2 - 0.0 - - 10 - - - -
03/07:30am 21.3 SE 6 12 1015.8 - 0.0 - - 10 - - - -
03/07:00am 20.6 SE 5 8 1015.5 - 0.0 - - 10 - - - -
03/06:30am 20.1 SE 5 9 1015.4 - 0.0 - - 10 - - - -
03/06:00am 20.1 ESE 5 8 1015.2 - 0.0 - - 10 - - - -
03/05:30am 21.1 ESE 5 8 1015.1 - 0.0 - - 10 - - - -
03/05:00am 20.9 ESE 4 7 1014.7 - 0.0 - - 10 - - - -
03/04:30am 20.8 ESE 4 6 1014.5 - 0.0 - - 10 - - - -
03/04:00am 20.7 ESE 4 7 1014.5 - 0.0 - - 10 - - - -
03/03:30am 21.4 SE 4 10 1014.5 - 0.0 - - 10 - - - -
03/03:00am 23.0 SSE 5 9 1014.4 - 0.0 - - 10 - - - -
03/02:30am 23.0 SSE 4 10 1014.6 - 0.0 - - 10 - - - -
03/02:00am 21.1 S 3 5 1014.6 - 0.0 - - 10 - - - -
03/01:30am 22.7 S 3 6 1014.9 - 0.0 - - 10 - - - -
03/01:00am 22.9 S 3 7 1015.1 - 0.0 - - 10 - - - -
03/12:30am 23.5 S 5 9 1015.5 - 0.0 - - 10 - - - -
03/12:00am 22.6 S 4 7 1015.7 - 0.0 - - 10 - - - -
 
Date/Time
WST
Temp

°C
Wind Pressure Rain
since 9am
mm
Weather Cloud Vis
km
Sea
Height
m
Swell
Dir
 
Speed
knots
Gust
knots
hPa Trend Height
m
Period
s
Dir
02/11:30pm 21.1 SSW 4 6 1015.9 - 0.0 - - 10 - - - -
02/11:00pm 20.1 SSW 3 5 1016.0 - 0.0 - - 10 - - - -
02/10:30pm 19.8 SSW 3 5 1016.2 - 0.0 - - 10 - - - -
02/10:00pm 20.7 SW 4 6 1016.4 - 0.0 - - 10 - - - -
02/09:30pm 20.5 SW 4 6 1016.6 - 0.0 - - 10 - - - -
02/09:00pm 20.8 SW 4 8 1016.6 - 0.0 - - 10 - - - -

Other Formats:

Comma delimited format used in spreadsheet applications
http://www.bom.gov.au/fwo/IDW60701/IDW60701.99206.axf

JavaScript Object Notation format (JSON) in row-major order
http://www.bom.gov.au/fwo/IDW60701/IDW60701.99206.json